• MPC Preparation (Info)

  • MPEC 2014-U94 : 2014 UK114

    The following Minor Planet Electronic Circular may be linked-to from your own Web pages, but must not otherwise be redistributed electronically.

    A form allowing access to any MPEC is at the bottom of this page.


    Read MPEC 2014-U93 Read MPEC 2014-U95


    M.P.E.C. 2014-U94                                Issued 2014 Oct. 27, 16:20 UT
    
         The Minor Planet Electronic Circulars contain information on unusual
             minor planets and routine data on comets.  They are published
       on behalf of Commission 20 of the International Astronomical Union by the
              Minor Planet Center, Smithsonian Astrophysical Observatory,
                              Cambridge, MA 02138, U.S.A.
    
                 Prepared using the Tamkin Foundation Computer Network
    
                                  MPC@CFA.HARVARD.EDU
                URL https://www.minorplanetcenter.net/    ISSN 1523-6714
    
                                      2014 UK114
    
    Observations:
         K14UB4K* C2014 10 25.28581 02 03 42.76 +07 32 59.7          20.2 VqEU094G96
         K14UB4K  C2014 10 25.29190 02 03 44.15 +07 33 11.1          21.4 VqEU094G96
         K14UB4K  C2014 10 25.29799 02 03 45.59 +07 33 22.9          20.6 VqEU094G96
         K14UB4K  C2014 10 25.30408 02 03 47.02 +07 33 34.5          20.7 VqEU094G96
         K14UB4K  C2014 10 25.36739302 04 01.71 +07 35 30.3          20.3 RtEU094H01
         K14UB4K  C2014 10 25.37759802 04 04.14 +07 35 49.2          20.6 RtEU094H01
         K14UB4K  C2014 10 25.38315702 04 05.46 +07 35 59.5          20.7 RtEU094H01
         K14UB4K  C2014 10 25.38853102 04 06.75 +07 36 09.5          20.6 RtEU094H01
         K14UB4K KC2014 10 25.39412 02 04 08.26 +07 36 22.0                oEU094291
         K14UB4K KC2014 10 25.39525 02 04 08.54 +07 36 24.0                oEU094291
         K14UB4K KC2014 10 25.39641 02 04 08.79 +07 36 26.5                oEU094291
         K14UB4K  C2014 10 26.17577202 07 33.47 +08 00 43.8          20.6 RtEU094H01
         K14UB4K  C2014 10 26.18211902 07 35.00 +08 00 55.8          21.0 RtEU094H01
         K14UB4K  C2014 10 26.18799102 07 36.40 +08 01 06.9          20.5 RtEU094H01
         K14UB4K  C2014 10 26.19671602 07 38.51 +08 01 23.8          20.5 RtEU094H01
         K14UB4K KC2014 10 27.28484902 12 15.13 +08 35 15.9          21.3 VuEU094H21
         K14UB4K KC2014 10 27.29150202 12 16.67 +08 35 27.9          21.6 VuEU094H21
         K14UB4K KC2014 10 27.29823802 12 18.28 +08 35 40.5          21.3 VuEU094H21
    
    Observer details:
    291 LPL/Spacewatch II.  Observer A. F. Tubbiolo.  1.8-m f/2.7 reflector + CCD.
    G96 Mt. Lemmon Survey.  Observer E. J. Christensen.  Measurers
        E. J. Christensen, A. R. Gibbs, A. D. Grauer, R. E. Hill, J. A. Johnson,
        R. A. Kowalski, S. M. Larson, F. C. Shelly.  1.5-m reflector + CCD.
    H01 Magdalena Ridge Observatory, Socorro.  Observers W. H. Ryan, E. V. Ryan.
        Measurer W. H. Ryan.  2.4-m f/8.9 reflector + CCD.
    H21 Astronomical Research Observatory, Westfield.  Observer R. Holmes.
        Measurers S. Foglia, L. Buzzi, T. Linder, T. Lister, T. Vorobjov.  1.3-m
        f/4.0 astrograph + CCD.
    
    Orbital elements:
    2014 UK114                                               Earth MOID = 0.1380 AU
    Epoch 2014 Dec. 9.0 TT = JDT 2457000.5                  MPC
    M  10.59351              (2000.0)            P               Q
    n   0.24749429     Peri.  327.79584     +0.83375513     -0.55189603
    a   2.5124220      Node    65.70974     +0.51027149     +0.75898517
    e   0.5496307      Incl.    1.01976     +0.21089188     +0.34547399
    P   3.98           H   24.7           G   0.15           U   7
    Residuals in seconds of arc
    141025 G96  0.1+  0.1-    141025 H01  0.0   0.0     141026 H01  0.0   0.3-
    141025 G96  0.4-  0.1-    141025 H01  0.1+  0.1+    141026 H01  0.0   0.3-
    141025 G96  0.2-  0.2+    141025 291  0.1+  0.1-    141026 H01  0.4+  0.0
    141025 G96  0.1-  0.4+    141025 291  0.2+  0.2-    141027 H21  0.2+  0.3+
    141025 H01  0.1-  0.0     141025 291  0.2-  0.2+    141027 H21  0.3-  0.0
    141025 H01  0.0   0.0     141026 H01  0.1-  0.2-    141027 H21  0.1-  0.1+
    
    Ephemeris:
    2014 UK114               a,e,i = 2.51, 0.55, 1                   q = 1.1315
    Date    TT    R. A. (2000) Decl.     Delta      r     Elong.  Phase     V
    2014 09 27    00 24 34.3 -03 37 45   0.1854  1.1871   174.2     4.9    21.8
    ...
    2014 10 12    01 09 52.8 +01 08 02   0.1486  1.1460   173.9     5.3    21.3
    ...
    2014 10 20    01 41 19.8 +04 50 39   0.1394  1.1348   174.6     4.7    21.1
    ...
    2014 10 26    02 06 45.7 +07 55 43   0.1377  1.1316   175.4     4.1    21.0
    2014 10 27    02 11 02.7 +08 26 55   0.1379  1.1315   175.5     3.9    21.0
    2014 10 28    02 15 19.4 +08 58 01   0.1382  1.1315   175.6     3.8    21.0
    ...
    2014 11 03    02 40 28.7 +11 58 44   0.1426  1.1344   176.3     3.2    21.1
    ...
    2014 11 11    03 10 55.6 +15 28 58   0.1553  1.1453   177.5     2.2    21.2
    ...
    2014 11 26    03 53 32.0 +19 58 25   0.1990  1.1858   177.0     2.5    21.8
    
    A. U. Tomatic                (C) Copyright 2014 MPC           M.P.E.C. 2014-U94
    

    Read MPEC 2014-U93 Read MPEC 2014-U95


    MPEC number:

    Enter an MPEC number in one of the following forms:

    • 1997-B01 (the full form)
    • J97B01 (the packed version of the full form)
    • B01 (the abbreviated form)